Location: PSU-Greenbush Astrophysical Observatory
(37.5140°N, 94.9880°W)
Time: 18:56:11
(UTC-06:00)

Transit 2A - Pass Details

Date: 24 January 2020
Orbit: 599 x 959 km, 66.7° (Epoch: 25 February)

Event Time Altitude Azimuth Distance (km) Brightness Sun altitude
Rises 06:07:18 0° 324° (NW) 3,032 - -16.3°
Reaches altitude 10° 06:09:36 10° 318° (NW) 2,163 - -15.9°
Exits shadow 06:11:26 22° 308° (NW) 1,537 7.0 -15.5°
Maximum altitude 06:14:17 45° 247° (WSW) 1,016 6.3 -15.0°
Drops below altitude 10° 06:19:25 10° 176° (S) 2,376 8.8 -14.0°
Sets 06:22:03 0° 170° (S) 3,365 9.7 -13.5°
